Location: Belmont
(13.0833°N, 59.6000°W)
Time: 08:59:03
(UTC+00:00)

Aurora 2 Rocket - Pass Details

Date: 17 September 2019
Orbit: 390 x 1748 km, 25.0° (Epoch: 18 October)

Event Time Altitude Azimuth Distance (km) Brightness Sun altitude
Rises 22:20:15 0° 244° (WSW) 5,028 8.4 -6.2°
Reaches altitude 10° 22:23:45 10° 243° (WSW) 4,002 7.7 -7.0°
Maximum altitude 22:34:35 84° 157° (SSE) 1,517 4.5 -9.7°
Enters shadow 22:42:55 10° 69° (ENE) 3,148 5.6 -11.7°
